Weather in Goryachiy Klyuch

Russia / Omsk Oblast     55°01′46″N   73°09′09″E
temp.,
°C
wind,
m/s
gust,
m/s
humid.,
%
clouds,
%
prec.,
mm/h
press.,
hPa
HPBL,
m
28 july, wed
wed2800:00+13ssw346478 0.0 101048
03:00+12wsw357773 0.0 100975
06:00+15ssw3665100 0.0 1008150
09:00+20sw355050 0.0 1008562
12:00+24sw6631100 0.0 10082528
15:00+23sw6744100 0.0 10062009
18:00+20w686718 2.5 1006820
21:00+16wsw3780100 0.4 1006196
29 july, thu
thu2900:00+14wsw3495100 3.6 1007176
03:00+12wnw37945 0.3 1007181
06:00+11nw410885 0.3 1008311
09:00+14nw56650 0.0 1009683
12:00+18wnw56433 0.0 10101707
15:00+20wnw45345 0.0 10092108
18:00+21w45319 0.0 10092407
21:00+15wsw48485 0.0 1009154
30 july, fri
fri3000:00+13wsw4105725 0.0 1010176
03:00+13wsw410555 0.0 1010218
06:00+12sw41163100 0.0 1011224
09:00+18wsw61147100 0.0 1011582
12:00+23wsw7935100 0.0 10111856
15:00+25wsw893193 0.0 10102695
18:00+25wsw7103033 0.0 10092843
21:00+20sw4845100 0.0 1009143
31 july, sat
sat3100:00+18w61456100 0.0 1009656
03:00+16sw71274100 0.3 1009671
06:00+15s51389100 1.7 1008470
09:00+14s61390100 2.4 1008678
12:00+20ssw566562 2.5 10071133
15:00+24w244896 0.0 10071765
18:00+22nnw555956 0.0 1009784
21:00+19nne347124 0.0 1010125
1 august, sun
sun100:00+15n22860 0.0 101123
03:00+14ene2288100 0.0 101116
06:00+14ene11884 0.0 101212
09:00+20sse116413 0.0 1011405
12:00+25ssw334972 0.0 10101344
15:00+26ssw2345100 0.0 10091691
18:00+25s1155100 0.1 100879
21:00+18w2595100 2.9 1008172